カタログに戻る

COSMOS 2435

GLONASS

運用中ナビゲーションMEO
NORAD 32394·PAYLOAD·🇷🇺 Russia

打ち上げ Dec 25, 2007 から Baikonur Cosmodrome

Loading…

次のパス (今後24時間)

TLE

最新Source: Space-Track

元期: Sep 14, 2026, 00:21 UTC

1 32394U 07065B   26257.01520103  .00000018  00000-0  00000-0 0  9992
2 32394  64.3226 188.9166 0025257 358.4227   1.5730  2.13115365145639

AllMySatでCOSMOS 2435をリアルタイム追跡

Download on the App Store